Torna al catalogo

PALAPA 1

AttivoComunicazioniGEO
NORAD 9009·PAYLOAD·🇮🇩 Indonesia

Lanciato Jul 8, 1976 da Cape Canaveral Space Force Station

Loading…

TLE

AggiornatoSource: Space-Track

Epoca: Sep 14, 2026, 08:37 UTC

1 09009U 76066A   26257.35931174 -.00000130  00000-0  00000-0 0  9993
2 09009   7.7101 304.4577 0004997 242.2374 285.7694  1.00109331128830

Traccia PALAPA 1 in tempo reale con AllMySat

Download on the App Store